Regional Weather Roundup
Issued by NWS Columbia, SC

Home | Current Version | Previous Version | Text Only | Print | Product List | Glossary On
Versions: 1 2 3 4 5 6 7 8 9 10 11 12 13 14 15 16 17 18 19 20 21 22 23 24 25 26 27 28 29 30 31 32 33 34 35 36 37 38 39 40 41 42 43 44 45 46 47 48 49 50
000
ASUS42 KCAE 011610
RWRCAE
REGIONAL WEATHER ROUNDUP
NATIONAL WEATHER SERVICE COLUMBIA SC
1100 AM EST SUN MAR 01 2015

NOTE: "FAIR" INDICATES FEW OR NO CLOUDS BELOW 12,000 FEET WITH NO
SIGNIFICANT WEATHER AND/OR OBSTRUCTIONS TO VISIBILITY.

NOT ALL STATIONS ARE QUALITY CONTROLLED BY THE NATIONAL
WEATHER SERVICE. USE DATA WITH CAUTION...ESPECIALLY
DEWPOINT OBSERVATIONS.

SCZ001>056-GAZ040-063>065-077-011700-
...UPSTATE SOUTH CAROLINA...

CITY           SKY/WX    TMP DP  RH WIND       PRES   REMARKS
ANDERSON       LGT RAIN  39  36  89 NE6       30.51F WCI  35
LIBERTY        CLOUDY    39  38  95 MISG      30.49F
SPARTANBURG    FAIR      37 N/A N/A E5        30.50F HAZE    WCI  34
CLEMSON        CLOUDY    41  35  79 VRB3      30.52S HAZE
GREENVILLE     CLOUDY    39  35  86 N6        30.51F FOG     WCI  35
GREENWOOD      CLOUDY    36  34  92 NE7       30.53F FOG     WCI  30
GREER          CLOUDY    39  36  89 NE3       30.50F FOG
ROCK HILL      MIX PCPN  33  32  96 E5        30.54S FOG     WCI  29
CHESTER        DRIZZLE   36  34  93 NE3       30.54F
LAURENS        CLOUDY    34  34 100 NE3       30.52F FOG


...CENTRAL SOUTH CAROLINA...

CITY           SKY/WX    TMP DP  RH WIND       PRES   REMARKS
COLUMBIA APT   CLOUDY    37  35  92 N5        30.53F FOG     WCI  33
COLUMBIA OWENS CLOUDY    37  34  89 CALM      30.55F
DARLINGTON     CLOUDY    36  30  80 N7        30.55F WCI  30
FLORENCE       RAIN      36  33  89 N8        30.53F FOG     WCI  30
ORANGEBURG     RAIN      37  33  85 N5        30.52F FOG     WCI  33
SUMTER SHAW    LGT RAIN  36  32  87 N6        30.52F WCI  31
NEWBERRY       DRIZZLE  N/A N/A N/A NE5       30.56F
AIKEN          CLOUDY    36  36 100 N7        30.55S FOG     WCI  30
BARNWELL       CLOUDY    37  37 100 N3        30.53F
MANNING        RAIN     N/A N/A N/A N8        30.53F
CAMDEN         LGT RAIN  34  34 100 N8        30.55S WCI  27
LANCASTER      LGT RAIN  32  32 100 CALM      30.55F
WINNSBORO      CLOUDY    34  34 100 N5        30.53S WCI  30


...EASTERN AND COASTAL SOUTH CAROLINA...

CITY           SKY/WX    TMP DP  RH WIND       PRES   REMARKS
MYRTLE BEACH   CLOUDY    48  39  71 NW7       30.49F
N MYRTLE BCH   CLOUDY    52  41  66 N6        30.47F
CONWAY         LGT RAIN  41  41 100 CALM      30.51R
MARION         DRIZZLE   36  34  93 CALM      30.54R
HARTSVILLE     CLOUDY    34  32  93 N3        30.54S
FLORENCE       RAIN      36  33  89 N8        30.53F FOG     WCI  30
DARLINGTON     CLOUDY    36  30  80 N7        30.55F WCI  30
CHARLESTON APT LGT RAIN  41  39  93 N9        30.50S FOG
MOUNT PLEASANT DRIZZLE   43  43 100 NW7       30.49F
WALTERBORO     LGT RAIN  39  39 100 N6        30.53S WCI  35
BEAUFORT       CLOUDY    42  40  92 N12       30.50F FOG


...EASTERN GEORGIA...

CITY           SKY/WX    TMP DP  RH WIND       PRES   REMARKS
AUGUSTA BUSH F CLOUDY    38  35  89 NE6       30.53F WCI  33
AUGUSTA DANIEL CLOUDY    39  36  89 N6        30.52F WCI  35
THOMSON        CLOUDY    39  39 100 NE5       30.56F
WASHINGTON     CLOUDY    41 N/A N/A E3        30.51F FOG
CLAXTON        CLOUDY    41  41 100 N5        30.50F FOG
SYLVANIA       DRIZZLE   39  39 100 NE8       30.51F WCI  34
STATESBORO     CLOUDY    40  40 100 N6        30.51F FOG
SAVANNAH       LGT RAIN  43  41  93 N8        30.50F VSB 1


...SOUTHERN NORTH CAROLINA...

CITY           SKY/WX    TMP DP  RH WIND       PRES   REMARKS
CHARLOTTE      CLOUDY    36  30  80 NE7       30.53F FOG     WCI  30
MONROE         LGT RAIN  33  31  92 N3        30.54R FOG
WADESBORO      RAIN      34  32  94 N3        30.54F
ROCKINGHAM     LGT RAIN  33  32  97 W3        30.54R
RUTHERFORDTON  CLOUDY    36  35  94 CALM      30.51F FOG
ASHEVILLE      CLOUDY    38  35  89 CALM      30.46F

$$


USA.gov is the U.S. government's official web portal to all federal, state and local government web resources and services.